Regional Weather Roundup
Issued by NWS

Home | Current Version | Previous Version | Graphics & Text | Print | Product List | Glossary On
Versions: 1 2 3 4 5 6 7 8 9 10 11 12 13 14 15 16 17 18 19 20 21 22 23 24 25 26 27 28 29 30 31 32 33 34 35 36 37 38 39 40 41 42 43 44 45 46 47 48 49 50
000
ASUS43 KLSX 191859
RWRMO

WEATHER SUMMARY FOR MISSOURI
NATIONAL WEATHER SERVICE SPRINGFIELD MO
100 PM CST FRI DEC 19 2014

NOTE: "FAIR" INDICATES FEW OR NO CLOUDS BELOW 12,000 FEET WITH NO
       SIGNIFICANT WEATHER AND/OR OBSTRUCTIONS TO VISIBILITY.
       CURRENT SKY AND/OR WEATHER CONDITIONS ARE NOT AVAILABLE FOR
       CHILLICOTHE AND FARMINGTON.

MOZ001>031-035>038-043-044-053-054-192000-
...NORTHERN AND WESTERN MISSOURI...

CITY           SKY/WX    TMP DP  RH WIND       PRES   REMARKS
KANSAS CTY INT LGT SNOW  31  31 100 S3        30.24F FOG
KANSAS C DTWN  CLOUDY    33  30  88 CALM      30.25F
LEE`S SUMMIT   CLOUDY    33  29  85 VRB3      30.24F
ST JOSEPH      CLOUDY    31  29  92 S8        30.26F FOG     WCI  23
CHILLICOTHE      N/A     33  29  85 S5        30.28F WCI  29
KIRKSVILLE     CLOUDY    31  28  89 SE5       30.27S FOG     WCI  26

$$
MOZ066>068-077>081-088>096-101>105-192000-
...SOUTHWEST MISSOURI...

CITY           SKY/WX    TMP DP  RH WIND       PRES   REMARKS
SPRINGFIELD    CLOUDY    38  36  92 SE6       30.21F FOG
JOPLIN         FOG       38  38 100 N5        30.22F VSB 1/4

$$
MOZ032>034-039>042-045>050-055>058-069>072-192000-
...CENTRAL MISSOURI...

CITY           SKY/WX    TMP DP  RH WIND       PRES   REMARKS
COLUMBIA       CLOUDY    36  32  85 S5        30.27S
JEFFERSON CITY CLOUDY    37  32  82 S6        30.28F
ROLLA          CLOUDY    34  31  88 MISG      30.24F
SEDALIA        CLOUDY    37  34  89 CALM      30.25F FOG
WARRENSBURG    CLOUDY    34  32  93 CALM      30.25F FOG
OSAGE BEACH    CLOUDY    37  32  81 E5        30.25F

$$
MOZ051-052-059>065-192000-
...EAST CENTRAL MISSOURI...

CITY           SKY/WX    TMP DP  RH WIND       PRES   REMARKS
ST LOUIS INTL  CLOUDY    38  27  64 CALM      30.30R
SPIRIT OF STL  CLOUDY    36  29  75 VRB3      30.30R
ST CHARLES     CLOUDY    36  29  75 CALM      30.30R

$$
MOZ072>076-082>087-097>100-106>115-192000-
...SOUTH CENTRAL AND SOUTHEAST MISSOURI...

CITY           SKY/WX    TMP DP  RH WIND       PRES   REMARKS
CAPE GIRARDEAU CLOUDY    38  29  70 N3        30.30R
FARMINGTON     CLOUDY    34  28  80 CALM      30.29R
POPLAR BLUFF   CLOUDY    39  27  62 NE3       30.29S
WEST PLAINS    CLOUDY    35  32  88 SE5       30.24F

$$


USA.gov is the U.S. government's official web portal to all federal, state and local government web resources and services.